Home   Weather   Kaunas   Past weeks

Flag for Lithuania Past Weather in Kaunas, Lithuania — Yesterday and Last 2 Weeks

39 °F

Light rain. Mostly cloudy.

Feels Like: 32 °F
Forecast: 40 / 45 °F
Wind: 13 mph from East

Location: Kaunas

Current Time: Oct 22, 2016 at 9:04:28 PM

Latest Report: Oct 22, 2016 at 8:20 PM

Visibility: 4 mi

Pressure: 30.12 "Hg

Humidity: 93%

Dew Point: 37 °F

Location of KaunasLocation

Past Weather in Kaunas — Graph


Kaunas Temperature Yesterday

Maximum temperature yesterday: 39 °F (at 3:20 PM)
Minimum temperature yesterday: 32 °F (at 4:50 AM)
Average temperature yesterday: 36 °F

High & Low Weather Summary for the Past Weeks

High48 °F (Oct 10, 12:20 AM)100% (Oct 8, 12:20 AM)30.69 "Hg (Oct 8, 12:20 AM)
Low25 °F (Oct 17, 5:50 AM)46% (Oct 16, 3:50 PM)29.92 "Hg (Oct 7, 11:20 PM)
Average39 °F80%30.31 "Hg
* Reported Oct 7 7:20 PM — Oct 22 7:50 PM, Kaunas, Weather by CustomWeather, © 2016

Note: Actual official high and low records may vary slightly from our data, if they occured in-between our weather recording intervals... More about our weather records


Kaunas Weather History for the Previous 24 Hours

Scroll right to see more
Time TempWeatherWind HumidityBarometerVisibility
7:50 PM
Sat, Oct 22
39 °FLight rain. Low clouds.13 mph93%30.12 "Hg4 mi
7:20 PM39 °FLight rain. Overcast.13 mph93%30.12 "Hg4 mi
6:50 PM39 °FLight rain. Overcast.14 mph87%30.12 "Hg5 mi
6:20 PM39 °FLight rain. Overcast.14 mph87%30.15 "Hg4 mi
5:50 PM39 °FLight rain. Overcast.14 mph81%30.15 "HgN/A
5:20 PM39 °FDrizzle. Overcast.14 mph81%30.15 "HgN/A
4:50 PM39 °FOvercast.14 mph75%30.15 "HgN/A
4:20 PM39 °FOvercast.13 mph75%30.15 "HgN/A
3:50 PM39 °FOvercast.13 mph75%30.15 "HgN/A
3:20 PM39 °FOvercast.14 mph75%30.15 "HgN/A
2:50 PM39 °FOvercast.13 mph75%30.15 "HgN/A
2:20 PM39 °FOvercast.14 mph70%30.18 "HgN/A
1:50 PM39 °FOvercast.15 mph70%30.18 "HgN/A
1:20 PM39 °FOvercast.14 mph70%30.18 "HgN/A
12:50 PM37 °FOvercast.15 mph75%30.18 "HgN/A
12:20 PM37 °FOvercast.16 mph75%30.18 "HgN/A
11:50 AM37 °FLight rain. Overcast.14 mph75%30.18 "HgN/A
11:20 AM37 °FLight rain. Overcast.13 mph75%30.18 "HgN/A
10:50 AM36 °FLight rain. Overcast.12 mph81%30.18 "Hg6 mi
10:20 AM36 °FLight rain. Overcast.12 mph81%30.18 "Hg6 mi
9:50 AM36 °FLight rain. Overcast.10 mph87%30.18 "HgN/A
9:20 AM36 °FLight rain. Overcast.9 mph87%30.18 "Hg6 mi
8:50 AM36 °FLight rain. Overcast.10 mph87%30.18 "Hg6 mi
8:20 AM36 °FLight rain. Overcast.10 mph87%30.18 "Hg5 mi
7:50 AM36 °FLight rain. Overcast.10 mph87%30.18 "Hg5 mi
7:20 AM36 °FLight rain. Overcast.9 mph87%30.18 "Hg5 mi
6:50 AM37 °FLight rain. Overcast.13 mph75%30.18 "Hg6 mi
6:20 AM37 °FOvercast.10 mph75%30.18 "HgN/A
5:50 AM37 °FOvercast.12 mph75%30.18 "HgN/A
5:20 AM37 °FOvercast.14 mph75%30.18 "HgN/A
4:50 AM37 °FMostly cloudy.14 mph75%30.18 "HgN/A
4:20 AM37 °FOvercast.14 mph75%30.18 "HgN/A
3:50 AM37 °FDrizzle. Mostly cloudy.14 mph75%30.18 "HgN/A
3:20 AM37 °FDrizzle. Mostly cloudy.12 mph75%30.21 "Hg6 mi
2:50 AM37 °FLight rain. Overcast.13 mph75%30.21 "HgN/A
2:20 AM37 °FDrizzle. Overcast.13 mph70%30.21 "HgN/A
1:50 AM39 °FOvercast.13 mph65%30.21 "HgN/A
1:20 AM37 °FOvercast.15 mph75%30.21 "HgN/A
12:50 AM39 °FOvercast.15 mph65%30.21 "HgN/A
12:20 AM39 °FOvercast.15 mph65%30.24 "HgN/A
11:50 PM
Fri, Oct 21
39 °FOvercast.14 mph65%30.24 "HgN/A
11:20 PM39 °FOvercast.14 mph65%30.24 "HgN/A
10:50 PM39 °FMostly cloudy.13 mph65%30.24 "HgN/A
10:20 PM39 °FMostly cloudy.14 mph65%30.24 "HgN/A
9:50 PM39 °FOvercast.14 mph65%30.21 "HgN/A
9:20 PM39 °FMostly cloudy.13 mph70%30.21 "HgN/A
Weather by CustomWeather, © 2016

See weather overviewHow to use our weather pages